When you browse on this site, cookies collect data to enhance your experience and personalize the content and advertising you see.
Visit our Privacy Policy to learn more. By continuing to use the site, you agree to this use of cookies and data.
  • In Austria
  • List of Countries
  • For 7 days
  • Water Temperature
  • Weather Map
  • News
  • Weather Widgets
  • user-avatar
    Login

    Hourly Weather Nha Trang

    Today, 21 January, Tuesday

    Time Temperature Precipitation Wind Pressure Humidity
    00:00 +21°C° 0 mm 3 mps 752 mmHg 86%
    01:00 +21°C° 0 mm 3 mps 752 mmHg 87%
    02:00 +21°C° 0 mm 2 mps 752 mmHg 87%
    03:00 +21°C° 0 mm 2 mps 751 mmHg 88%
    04:00 +20°C° 0 mm 2 mps 751 mmHg 88%
    05:00 +21°C° 0 mm 2 mps 752 mmHg 87%
    06:00 +21°C° 0 mm 2 mps 752 mmHg 86%
    07:00 +21°C° 0 mm 2 mps 752 mmHg 85%
    08:00 +24°C° 0 mm 2 mps 752 mmHg 79%
    09:00 +26°C° 0 mm 3 mps 752 mmHg 72%
    10:00 +28°C° 0 mm 3 mps 753 mmHg 66%
    11:00 +28°C° 0 mm 3 mps 752 mmHg 65%
    12:00 +29°C° 0 mm 4 mps 751 mmHg 65%
    13:00 +29°C° 0 mm 5 mps 750 mmHg 64%
    14:00 +29°C° 0 mm 5 mps 750 mmHg 67%
    15:00 +28°C° 0 mm 5 mps 750 mmHg 70%
    16:00 +27°C° 0 mm 5 mps 749 mmHg 73%
    17:00 +26°C° 0 mm 4 mps 750 mmHg 79%
    18:00 +25°C° 0 mm 4 mps 751 mmHg 84%
    19:00 +24°C° 0 mm 3 mps 751 mmHg 89%
    20:00 +22°C° 0 mm 3 mps 751 mmHg 90%
    21:00 +22°C° 0 mm 3 mps 752 mmHg 90%
    22:00 +23°C° 0 mm 2 mps 752 mmHg 91%
    23:00 +23°C° 0 mm 2 mps 752 mmHg 91%

    Tomorrow, 22 January, Wednesday

    Time Temperature Precipitation Wind Pressure Humidity
    00:00 +21°C° 0 mm 2 mps 752 mmHg 91%
    01:00 +21°C° 0 mm 2 mps 751 mmHg 92%
    02:00 +21°C° 0 mm 2 mps 751 mmHg 92%
    03:00 +21°C° 0 mm 2 mps 751 mmHg 92%
    04:00 +20°C° 0 mm 2 mps 750 mmHg 93%
    05:00 +21°C° 0 mm 2 mps 751 mmHg 91%
    06:00 +21°C° 0 mm 2 mps 751 mmHg 89%
    07:00 +21°C° 0 mm 2 mps 751 mmHg 87%
    08:00 +24°C° 0 mm 2 mps 751 mmHg 80%
    09:00 +26°C° 0 mm 2 mps 752 mmHg 73%
    10:00 +28°C° 0 mm 2 mps 752 mmHg 66%
    11:00 +29°C° 0 mm 3 mps 751 mmHg 67%
    12:00 +29°C° 0 mm 3 mps 750 mmHg 67%
    13:00 +29°C° 0 mm 3 mps 750 mmHg 68%
    14:00 +29°C° 0 mm 3 mps 749 mmHg 70%
    15:00 +28°C° 0 mm 3 mps 749 mmHg 72%
    16:00 +28°C° 0 mm 3 mps 748 mmHg 74%
    17:00 +27°C° 0 mm 3 mps 749 mmHg 80%
    18:00 +25°C° 0 mm 2 mps 749 mmHg 85%
    19:00 +24°C° 0 mm 2 mps 750 mmHg 91%
    20:00 +24°C° 0 mm 2 mps 750 mmHg 91%
    21:00 +24°C° 0 mm 2 mps 750 mmHg 91%
    22:00 +24°C° 0 mm 2 mps 751 mmHg 90%
    23:00 +24°C° 0 mm 2 mps 750 mmHg 91%

    Day after tomorrow, 23 January, Thursday

    Time Temperature Precipitation Wind Pressure Humidity
    00:00 +23°C° 0 mm 2 mps 750 mmHg 91%
    01:00 +23°C° 0 mm 2 mps 750 mmHg 92%
    02:00 +23°C° 0 mm 2 mps 749 mmHg 92%
    03:00 +23°C° 0 mm 1 mps 749 mmHg 92%
    04:00 +22°C° 0 mm 1 mps 749 mmHg 92%
    05:00 +23°C° 0 mm 2 mps 749 mmHg 91%
    06:00 +23°C° 0 mm 2 mps 750 mmHg 90%
    07:00 +23°C° 0 mm 2 mps 751 mmHg 88%
    08:00 +25°C° 0 mm 2 mps 751 mmHg 80%
    09:00 +27°C° 0 mm 2 mps 751 mmHg 72%
    10:00 +28°C° 0 mm 2 mps 751 mmHg 65%
    11:00 +29°C° 0 mm 2 mps 750 mmHg 62%
    12:00 +30°C° 0 mm 3 mps 749 mmHg 58%
    13:00 +30°C° 0 mm 3 mps 749 mmHg 55%
    14:00 +29°C° 0 mm 3 mps 748 mmHg 61%
    15:00 +29°C° 0 mm 3 mps 748 mmHg 66%
    16:00 +28°C° 0 mm 4 mps 747 mmHg 71%
    17:00 +27°C° 0 mm 3 mps 748 mmHg 78%
    18:00 +25°C° 0 mm 2 mps 748 mmHg 85%
    19:00 +24°C° 0 mm 2 mps 749 mmHg 93%
    20:00 +24°C° 0 mm 2 mps 749 mmHg 93%
    21:00 +24°C° 0 mm 2 mps 749 mmHg 93%
    22:00 +23°C° 0 mm 2 mps 750 mmHg 93%
    23:00 +23°C° 0 mm 2 mps 750 mmHg 91%

    24 January, Friday

    Time Temperature Precipitation Wind Pressure Humidity
    00:00 +24°C° 0 mm 2 mps 749 mmHg 90%
    01:00 +24°C° 0 mm 1 mps 749 mmHg 88%
    02:00 +24°C° 0 mm 1 mps 749 mmHg 89%
    03:00 +23°C° 0 mm 1 mps 749 mmHg 90%
    04:00 +23°C° 0 mm 1 mps 748 mmHg 91%
    05:00 +24°C° 0.1 mm 1 mps 749 mmHg 90%
    06:00 +24°C° 0.1 mm 1 mps 749 mmHg 89%
    07:00 +24°C° 0.1 mm 1 mps 750 mmHg 88%
    08:00 +26°C° 0.2 mm 1 mps 750 mmHg 83%
    09:00 +27°C° 0.2 mm 1 mps 750 mmHg 77%
    10:00 +28°C° 0.2 mm 2 mps 750 mmHg 72%
    11:00 +29°C° 0 mm 2 mps 749 mmHg 70%
    12:00 +29°C° 0 mm 2 mps 749 mmHg 67%
    13:00 +30°C° 0 mm 3 mps 748 mmHg 65%
    14:00 +29°C° 0 mm 3 mps 747 mmHg 68%
    15:00 +29°C° 0 mm 3 mps 747 mmHg 71%
    16:00 +28°C° 0 mm 3 mps 747 mmHg 74%
    17:00 +27°C° 0 mm 2 mps 747 mmHg 80%
    18:00 +26°C° 0 mm 2 mps 747 mmHg 87%
    19:00 +25°C° 0 mm 1 mps 748 mmHg 93%
    20:00 +24°C° 0 mm 1 mps 748 mmHg 93%
    21:00 +24°C° 0 mm 1 mps 748 mmHg 93%
    22:00 +24°C° 0 mm 1 mps 749 mmHg 94%
    23:00 +24°C° 0 mm 1 mps 749 mmHg 94%

    25 January, Saturday

    Time Temperature Precipitation Wind Pressure Humidity
    00:00 +23°C° 0 mm 1 mps 748 mmHg 93%
    01:00 +23°C° 0 mm 1 mps 748 mmHg 93%
    02:00 +23°C° 0 mm 2 mps 748 mmHg 93%
    03:00 +23°C° 0 mm 2 mps 747 mmHg 92%
    04:00 +23°C° 0 mm 2 mps 747 mmHg 92%
    05:00 +23°C° 0 mm 2 mps 748 mmHg 90%
    06:00 +23°C° 0 mm 2 mps 748 mmHg 89%
    07:00 +24°C° 0 mm 2 mps 748 mmHg 88%
    08:00 +25°C° 0 mm 2 mps 749 mmHg 81%
    09:00 +27°C° 0 mm 1 mps 749 mmHg 74%
    10:00 +29°C° 0 mm 1 mps 749 mmHg 67%
    11:00 +29°C° 0 mm 2 mps 748 mmHg 67%
    12:00 +30°C° 0 mm 2 mps 747 mmHg 66%
    13:00 +30°C° 0 mm 3 mps 747 mmHg 65%
    14:00 +29°C° 0 mm 2 mps 746 mmHg 68%
    15:00 +29°C° 0 mm 2 mps 746 mmHg 70%
    16:00 +28°C° 0 mm 2 mps 745 mmHg 73%
    17:00 +27°C° 0 mm 1 mps 746 mmHg 79%
    18:00 +26°C° 0 mm 1 mps 746 mmHg 84%
    19:00 +23°C° 0 mm 0 mps 747 mmHg 90%
    20:00 +23°C° 0 mm 0 mps 747 mmHg 91%
    21:00 +22°C° 0 mm 0 mps 748 mmHg 91%
    22:00 +22°C° 0 mm 0 mps 748 mmHg 92%
    23:00 +22°C° 0 mm 0 mps 748 mmHg 92%

    26 January, Sunday

    Time Temperature Precipitation Wind Pressure Humidity
    00:00 +24°C° 0 mm 1 mps 748 mmHg 92%
    01:00 +24°C° 0 mm 1 mps 747 mmHg 92%
    02:00 +23°C° 0 mm 1 mps 747 mmHg 91%
    03:00 +23°C° 0 mm 1 mps 747 mmHg 91%
    04:00 +23°C° 0 mm 1 mps 747 mmHg 91%
    05:00 +24°C° 0 mm 1 mps 747 mmHg 90%
    06:00 +24°C° 0 mm 1 mps 747 mmHg 88%
    07:00 +24°C° 0 mm 1 mps 748 mmHg 87%
    08:00 +26°C° 0 mm 1 mps 748 mmHg 80%
    09:00 +28°C° 0 mm 1 mps 748 mmHg 74%
    10:00 +29°C° 0 mm 1 mps 748 mmHg 67%
    11:00 +30°C° 0 mm 1 mps 748 mmHg 68%
    12:00 +30°C° 0 mm 2 mps 747 mmHg 68%
    13:00 +30°C° 0 mm 2 mps 746 mmHg 69%
    14:00 +29°C° 0.4 mm 2 mps 746 mmHg 73%
    15:00 +29°C° 0.4 mm 2 mps 746 mmHg 78%
    16:00 +28°C° 0.4 mm 2 mps 746 mmHg 82%
    17:00 +27°C° 0.2 mm 1 mps 746 mmHg 86%
    18:00 +26°C° 0.2 mm 1 mps 747 mmHg 89%
    19:00 +25°C° 0.2 mm 1 mps 747 mmHg 92%
    20:00 +25°C° 0.4 mm 1 mps 748 mmHg 93%
    21:00 +25°C° 0.4 mm 2 mps 748 mmHg 93%
    22:00 +25°C° 0.4 mm 2 mps 749 mmHg 93%
    23:00 +25°C° 0.2 mm 2 mps 749 mmHg 93%
    Show more